• en France
  • Liste des pays
  • À 7 jours
  • Température de l'eau
  • Carte satellitaire
  • Carte météo
  • Widgets météo
  • user-avatar
    Se connecter

    Météo par heure à Zarya

    Ce jour, 24 Septembre, Lundi

    Heure Température Précipitation Vent Pression Humidité
    00:00 +8°C° 0 mm 3 m/s 739 mmHg 88%
    01:00 +8°C° 0 mm 3 m/s 739 mmHg 89%
    02:00 +7°C° 0 mm 3 m/s 739 mmHg 90%
    03:00 +7°C° 0 mm 3 m/s 739 mmHg 93%
    04:00 +5°C° 0 mm 3 m/s 739 mmHg 93%
    05:00 +5°C° 0 mm 3 m/s 739 mmHg 94%
    06:00 +5°C° 0 mm 3 m/s 739 mmHg 94%
    07:00 +7°C° 0 mm 3 m/s 739 mmHg 89%
    08:00 +8°C° 0 mm 3 m/s 739 mmHg 84%
    09:00 +10°C° 0 mm 3 m/s 740 mmHg 78%
    10:00 +11°C° 0 mm 4 m/s 739 mmHg 73%
    11:00 +12°C° 0 mm 5 m/s 739 mmHg 68%
    12:00 +13°C° 0 mm 5 m/s 739 mmHg 62%
    13:00 +13°C° 0.1 mm 6 m/s 738 mmHg 64%
    14:00 +11°C° 0.1 mm 6 m/s 738 mmHg 65%
    15:00 +11°C° 0.1 mm 6 m/s 737 mmHg 67%
    16:00 +10°C° 0.9 mm 6 m/s 737 mmHg 71%
    17:00 +9°C° 0.9 mm 7 m/s 736 mmHg 76%
    18:00 +9°C° 0.9 mm 7 m/s 735 mmHg 81%
    19:00 +9°C° 1.2 mm 8 m/s 734 mmHg 82%
    20:00 +9°C° 1.2 mm 8 m/s 733 mmHg 82%
    21:00 +10°C° 1.2 mm 9 m/s 732 mmHg 83%
    22:00 +10°C° 0.5 mm 9 m/s 732 mmHg 84%
    23:00 +10°C° 0.5 mm 9 m/s 731 mmHg 85%

    Demain, 25 Septembre, Mardi

    Heure Température Précipitation Vent Pression Humidité
    00:00 +10°C° 0.5 mm 9 m/s 730 mmHg 87%
    01:00 +9°C° 0.2 mm 8 m/s 730 mmHg 86%
    02:00 +9°C° 0.2 mm 7 m/s 730 mmHg 85%
    03:00 +8°C° 0.2 mm 7 m/s 730 mmHg 84%
    04:00 +8°C° 0 mm 7 m/s 730 mmHg 83%
    05:00 +6°C° 0 mm 7 m/s 730 mmHg 83%
    06:00 +6°C° 0 mm 7 m/s 730 mmHg 82%
    07:00 +6°C° 0 mm 7 m/s 731 mmHg 81%
    08:00 +8°C° 0 mm 7 m/s 731 mmHg 80%
    09:00 +7°C° 0 mm 8 m/s 732 mmHg 78%
    10:00 +7°C° 0 mm 8 m/s 732 mmHg 77%
    11:00 +7°C° 0 mm 8 m/s 733 mmHg 75%
    12:00 +9°C° 0 mm 8 m/s 733 mmHg 74%
    13:00 +7°C° 0.1 mm 8 m/s 734 mmHg 74%
    14:00 +7°C° 0.1 mm 8 m/s 734 mmHg 74%
    15:00 +7°C° 0.1 mm 8 m/s 735 mmHg 73%
    16:00 +8°C° 0.1 mm 7 m/s 735 mmHg 74%
    17:00 +6°C° 0.1 mm 7 m/s 736 mmHg 75%
    18:00 +6°C° 0.1 mm 7 m/s 737 mmHg 76%
    19:00 +6°C° 0.2 mm 7 m/s 737 mmHg 77%
    20:00 +5°C° 0.2 mm 7 m/s 738 mmHg 78%
    21:00 +5°C° 0.2 mm 7 m/s 738 mmHg 80%
    22:00 +5°C° 0.2 mm 7 m/s 739 mmHg 80%
    23:00 +5°C° 0.2 mm 6 m/s 739 mmHg 81%

    Après-demain, 26 Septembre, Mercredi

    Heure Température Précipitation Vent Pression Humidité
    00:00 +4°C° 0.2 mm 6 m/s 740 mmHg 82%
    01:00 +4°C° 0.1 mm 6 m/s 741 mmHg 82%
    02:00 +4°C° 0.1 mm 6 m/s 741 mmHg 83%
    03:00 +3°C° 0.1 mm 6 m/s 742 mmHg 84%
    04:00 +3°C° 0 mm 6 m/s 742 mmHg 84%
    05:00 +3°C° 0 mm 6 m/s 743 mmHg 83%
    06:00 +2°C° 0 mm 5 m/s 743 mmHg 83%
    07:00 +2°C° 0 mm 6 m/s 744 mmHg 80%
    08:00 +3°C° 0 mm 6 m/s 745 mmHg 77%
    09:00 +3°C° 0 mm 6 m/s 745 mmHg 73%
    10:00 +4°C° 0 mm 6 m/s 746 mmHg 68%
    11:00 +5°C° 0 mm 6 m/s 746 mmHg 63%
    12:00 +7°C° 0 mm 6 m/s 747 mmHg 57%
    13:00 +7°C° 0 mm 6 m/s 747 mmHg 54%
    14:00 +8°C° 0 mm 5 m/s 747 mmHg 51%
    15:00 +8°C° 0 mm 5 m/s 747 mmHg 48%
    16:00 +7°C° 0 mm 4 m/s 747 mmHg 52%
    17:00 +6°C° 0 mm 4 m/s 747 mmHg 56%
    18:00 +5°C° 0 mm 3 m/s 747 mmHg 60%
    19:00 +5°C° 0 mm 3 m/s 747 mmHg 62%
    20:00 +4°C° 0 mm 4 m/s 747 mmHg 64%
    21:00 +4°C° 0 mm 4 m/s 746 mmHg 65%
    22:00 +3°C° 0 mm 5 m/s 746 mmHg 65%
    23:00 +3°C° 0 mm 5 m/s 745 mmHg 65%

    27 Septembre, Jeudi

    Heure Température Précipitation Vent Pression Humidité
    00:00 +3°C° 0 mm 6 m/s 745 mmHg 66%
    01:00 +4°C° 0 mm 7 m/s 744 mmHg 67%
    02:00 +4°C° 0 mm 7 m/s 743 mmHg 68%
    03:00 +4°C° 0 mm 8 m/s 742 mmHg 69%
    04:00 +4°C° 0.6 mm 8 m/s 741 mmHg 72%
    05:00 +3°C° 0.6 mm 9 m/s 740 mmHg 74%
    06:00 +3°C° 0.6 mm 10 m/s 740 mmHg 77%
    07:00 +3°C° 0.8 mm 10 m/s 739 mmHg 79%
    08:00 +3°C° 0.8 mm 10 m/s 739 mmHg 80%
    09:00 +5°C° 0.8 mm 10 m/s 738 mmHg 82%
    10:00 +5°C° 0.8 mm 10 m/s 738 mmHg 83%
    11:00 +5°C° 0.8 mm 9 m/s 738 mmHg 84%
    12:00 +6°C° 0.8 mm 8 m/s 737 mmHg 85%
    13:00 +6°C° 0.3 mm 8 m/s 737 mmHg 85%
    14:00 +6°C° 0.3 mm 8 m/s 737 mmHg 85%
    15:00 +7°C° 0.3 mm 8 m/s 737 mmHg 85%
    16:00 +8°C° 0.2 mm 7 m/s 737 mmHg 86%
    17:00 +8°C° 0.2 mm 7 m/s 737 mmHg 87%
    18:00 +8°C° 0.2 mm 7 m/s 737 mmHg 88%
    19:00 +8°C° 0.4 mm 6 m/s 737 mmHg 89%
    20:00 +7°C° 0.4 mm 5 m/s 737 mmHg 90%
    21:00 +7°C° 0.4 mm 5 m/s 737 mmHg 91%
    22:00 +7°C° 0 mm 4 m/s 737 mmHg 92%
    23:00 +6°C° 0 mm 4 m/s 737 mmHg 93%

    28 Septembre, Vendredi

    Heure Température Précipitation Vent Pression Humidité
    00:00 +7°C° 0 mm 3 m/s 737 mmHg 94%
    01:00 +7°C° 0 mm 3 m/s 737 mmHg 94%
    02:00 +7°C° 0 mm 3 m/s 738 mmHg 93%
    03:00 +5°C° 0 mm 3 m/s 738 mmHg 93%
    04:00 +7°C° 0 mm 3 m/s 737 mmHg 91%
    05:00 +7°C° 0 mm 3 m/s 737 mmHg 90%
    06:00 +7°C° 0 mm 3 m/s 737 mmHg 89%
    07:00 +7°C° 0 mm 4 m/s 737 mmHg 86%
    08:00 +8°C° 0 mm 5 m/s 736 mmHg 83%
    09:00 +9°C° 0 mm 6 m/s 736 mmHg 79%
    10:00 +9°C° 0.2 mm 7 m/s 736 mmHg 81%
    11:00 +10°C° 0.2 mm 8 m/s 735 mmHg 83%
    12:00 +11°C° 0.2 mm 9 m/s 734 mmHg 84%
    13:00 +11°C° 0.2 mm 9 m/s 734 mmHg 83%
    14:00 +12°C° 0.2 mm 10 m/s 734 mmHg 82%
    15:00 +12°C° 0.2 mm 10 m/s 734 mmHg 80%
    16:00 +11°C° 0.6 mm 8 m/s 735 mmHg 82%
    17:00 +10°C° 0.6 mm 6 m/s 735 mmHg 84%
    18:00 +9°C° 0.6 mm 5 m/s 736 mmHg 86%
    19:00 +8°C° 0.1 mm 4 m/s 736 mmHg 87%
    20:00 +7°C° 0.1 mm 4 m/s 737 mmHg 88%
    21:00 +8°C° 0.1 mm 3 m/s 738 mmHg 88%
    22:00 +7°C° 0 mm 3 m/s 738 mmHg 90%
    23:00 +6°C° 0 mm 2 m/s 739 mmHg 91%

    29 Septembre, Samedi

    Heure Température Précipitation Vent Pression Humidité
    00:00 +5°C° 0 mm 2 m/s 739 mmHg 92%
    01:00 +5°C° 0 mm 2 m/s 740 mmHg 91%
    02:00 +5°C° 0 mm 1 m/s 740 mmHg 91%
    03:00 +5°C° 0 mm 1 m/s 741 mmHg 90%
    04:00 +5°C° 0 mm 1 m/s 741 mmHg 90%
    05:00 +4°C° 0 mm 1 m/s 741 mmHg 90%
    06:00 +4°C° 0 mm 1 m/s 742 mmHg 89%
    07:00 +5°C° 0 mm 1 m/s 742 mmHg 85%
    08:00 +6°C° 0 mm 1 m/s 742 mmHg 80%
    09:00 +7°C° 0 mm 1 m/s 742 mmHg 76%
    10:00 +8°C° 0 mm 1 m/s 743 mmHg 70%
    11:00 +8°C° 0 mm 2 m/s 743 mmHg 65%
    12:00 +10°C° 0 mm 2 m/s 743 mmHg 59%
    13:00 +10°C° 0 mm 2 m/s 742 mmHg 58%
    14:00 +10°C° 0 mm 2 m/s 742 mmHg 56%
    15:00 +10°C° 0 mm 2 m/s 742 mmHg 55%
    16:00 +10°C° 0 mm 2 m/s 742 mmHg 59%
    17:00 +9°C° 0 mm 2 m/s 742 mmHg 64%
    18:00 +8°C° 0 mm 2 m/s 742 mmHg 68%
    19:00 +8°C° 0.3 mm 2 m/s 743 mmHg 71%
    20:00 +7°C° 0.3 mm 2 m/s 743 mmHg 75%
    21:00 +7°C° 0.3 mm 2 m/s 743 mmHg 78%
    22:00 +7°C° 0.2 mm 2 m/s 744 mmHg 79%
    23:00 +6°C° 0.2 mm 2 m/s 744 mmHg 80%
    Voir plus